AZERSPACE 1

Last updated on Sat Feb 07 2026 00:02:49 GMT+0000 (Coordinated Universal Time)

1 39079U 13006B 26037.63498951 .00000135 00000+0 00000+0 0 9998 2 39079 0.0430 271.3120 0001627 93.0300 46.9700 1.00272597 47497
UTC large
Height (km)
Speed (km/s)
/
Latitude / Longitude
Inclination (degrees)
Orbital Period (minutes)
Azimuth
Elevation
Range (km)
Doppler Factor

Next 0 passes for location: London (51.5072 / 0.1276)

Sorry there are no passes over London.